M I D A S
Marine Information and Data Acquisition System
Tripno 1291 of the Zeeleeuw from 2007-06-22 05:56:11 to 2007-06-22 13:24:53
Back to CruiseResearch ActivitiesStationsMapUnderway DataData graphs

EquipmentUnitsComments
TimeDGPSUTC
LatitudeDGPSDM.mWGS84
LongitudeDGPSDM.mWGS84
SpeedMeteo Stationm/sRelative wind speed
DirectionMeteo StationdegRelative wind direction
TemperatureMeteo Stationdeg CelciusAir temperature
PressureMeteo StationPaAtmospheric pressure
HumidityMeteo Station%Relative humidity
Missing or incorrect values are displayed as -999
Metereological data collected by the RV Zeeleeuw from 2007-06-22 05:57:33 to 2007-06-22 13:35:43
Time Latitude Longitude Speed Direction Temperature Pressure Humidity
2007-06-22 05:58 51°13.613 2°56.033 -999 -999 -999 -999 -999
2007-06-22 05:59 51°13.651 2°55.925 -999 -999 -999 -999 -999
2007-06-22 06:00 51°13.694 2°55.819 -999 -999 -999 -999 -999
2007-06-22 06:01 51°13.713 2°55.739 -999 -999 -999 -999 -999
2007-06-22 06:02 51°13.717 2°55.696 -999 -999 -999 -999 -999
2007-06-22 06:03 51°13.734 2°55.696 -999 -999 -999 -999 -999
2007-06-22 06:04 51°13.804 2°55.655 -999 -999 -999 -999 -999
2007-06-22 06:05 51°13.916 2°55.576 -999 -999 -999 -999 -999
2007-06-22 06:06 51°14.042 2°55.488 -999 -999 -999 -999 -999
2007-06-22 06:07 51°14.157 2°55.398 -999 -999 -999 -999 -999
2007-06-22 06:08 51°14.271 2°55.25 -999 -999 -999 -999 -999
2007-06-22 06:09 51°14.394 2°55.019 -999 -999 -999 -999 -999
2007-06-22 06:10 51°14.546 2°54.773 -999 -999 -999 -999 -999
2007-06-22 06:11 51°14.65 2°54.477 -999 -999 -999 -999 -999
2007-06-22 06:12 51°14.714 2°54.158 -999 -999 -999 -999 -999
2007-06-22 06:13 51°14.731 2°53.829 -999 -999 -999 -999 -999
2007-06-22 06:14 51°14.737 2°53.497 -999 -999 -999 -999 -999
2007-06-22 06:15 51°14.761 2°53.156 -999 -999 -999 -999 -999
2007-06-22 06:16 51°14.817 2°52.827 -999 -999 -999 -999 -999
2007-06-22 06:17 51°14.87 2°52.504 -999 -999 -999 -999 -999
2007-06-22 06:18 51°14.924 2°52.172 -999 -999 -999 -999 -999
2007-06-22 06:19 51°14.979 2°51.853 -999 -999 -999 -999 -999
2007-06-22 06:20 51°15.036 2°51.528 -999 -999 -999 -999 -999
2007-06-22 06:21 51°15.093 2°51.205 -999 -999 -999 -999 -999
2007-06-22 06:22 51°15.15 2°50.881 -999 -999 -999 -999 -999
2007-06-22 06:23 51°15.208 2°50.55 -999 -999 -999 -999 -999
2007-06-22 06:24 51°15.272 2°50.235 -999 -999 -999 -999 -999
2007-06-22 06:25 51°15.372 2°49.925 -999 -999 -999 -999 -999
2007-06-22 06:26 51°15.456 2°49.619 -999 -999 -999 -999 -999
2007-06-22 06:27 51°15.542 2°49.301 -999 -999 -999 -999 -999
2007-06-22 06:28 51°15.623 2°48.993 -999 -999 -999 -999 -999
2007-06-22 06:29 51°15.708 2°48.676 -999 -999 -999 -999 -999
2007-06-22 06:30 51°15.79 2°48.366 -999 -999 -999 -999 -999
2007-06-22 06:31 51°15.878 2°48.05 -999 -999 -999 -999 -999
2007-06-22 06:32 51°15.957 2°47.744 -999 -999 -999 -999 -999
2007-06-22 06:33 51°16.036 2°47.434 -999 -999 -999 -999 -999
2007-06-22 06:34 51°16.116 2°47.118 -999 -999 -999 -999 -999
2007-06-22 06:35 51°16.192 2°46.813 -999 -999 -999 -999 -999
2007-06-22 06:36 51°16.272 2°46.495 -999 -999 -999 -999 -999
2007-06-22 06:37 51°16.35 2°46.186 -999 -999 -999 -999 -999
2007-06-22 06:38 51°16.43 2°45.867 -999 -999 -999 -999 -999
2007-06-22 06:39 51°16.522 2°45.552 -999 -999 -999 -999 -999
2007-06-22 06:40 51°16.623 2°45.243 -999 -999 -999 -999 -999
2007-06-22 06:41 51°16.729 2°44.931 -999 -999 -999 -999 -999
2007-06-22 06:42 51°16.83 2°44.627 -999 -999 -999 -999 -999
2007-06-22 06:43 51°16.941 2°44.318 -999 -999 -999 -999 -999
2007-06-22 06:44 51°17.048 2°44.02 -999 -999 -999 -999 -999
2007-06-22 06:45 51°17.156 2°43.711 -999 -999 -999 -999 -999
2007-06-22 06:46 51°17.261 2°43.412 -999 -999 -999 -999 -999
2007-06-22 06:47 51°17.368 2°43.104 -999 -999 -999 -999 -999
2007-06-22 06:48 51°17.477 2°42.806 -999 -999 -999 -999 -999
2007-06-22 06:49 51°17.591 2°42.507 -999 -999 -999 -999 -999
2007-06-22 06:50 51°17.703 2°42.207 -999 -999 -999 -999 -999
2007-06-22 06:51 51°17.811 2°41.912 -999 -999 -999 -999 -999
2007-06-22 06:52 51°17.92 2°41.606 -999 -999 -999 -999 -999
2007-06-22 06:53 51°18.026 2°41.309 -999 -999 -999 -999 -999
2007-06-22 06:54 51°18.136 2°41.005 -999 -999 -999 -999 -999
2007-06-22 06:55 51°18.252 2°40.723 -999 -999 -999 -999 -999
2007-06-22 06:56 51°18.369 2°40.429 -999 -999 -999 -999 -999
2007-06-22 06:57 51°18.493 2°40.15 -999 -999 -999 -999 -999
2007-06-22 06:58 51°18.614 2°39.864 -999 -999 -999 -999 -999
2007-06-22 06:59 51°18.741 2°39.568 -999 -999 -999 -999 -999
2007-06-22 07:00 51°18.861 2°39.278 -999 -999 -999 -999 -999
2007-06-22 07:01 51°18.981 2°38.977 -999 -999 -999 -999 -999
2007-06-22 07:02 51°19.098 2°38.68 -999 -999 -999 -999 -999
2007-06-22 07:03 51°19.215 2°38.384 -999 -999 -999 -999 -999
2007-06-22 07:04 51°19.332 2°38.087 -999 -999 -999 -999 -999
2007-06-22 07:05 51°19.449 2°37.793 -999 -999 -999 -999 -999
2007-06-22 07:06 51°19.567 2°37.502 -999 -999 -999 -999 -999
2007-06-22 07:07 51°19.684 2°37.21 -999 -999 -999 -999 -999
2007-06-22 07:08 51°19.802 2°36.919 -999 -999 -999 -999 -999
2007-06-22 07:09 51°19.919 2°36.626 -999 -999 -999 -999 -999
2007-06-22 07:10 51°20.037 2°36.333 -999 -999 -999 -999 -999
2007-06-22 07:11 51°20.153 2°36.045 -999 -999 -999 -999 -999
2007-06-22 07:12 51°20.274 2°35.748 -999 -999 -999 -999 -999
2007-06-22 07:13 51°20.392 2°35.457 -999 -999 -999 -999 -999
2007-06-22 07:14 51°20.513 2°35.167 -999 -999 -999 -999 -999
2007-06-22 07:15 51°20.64 2°34.883 -999 -999 -999 -999 -999
2007-06-22 07:16 51°20.836 2°34.715 -999 -999 -999 -999 -999
2007-06-22 07:17 51°21.066 2°34.618 -999 -999 -999 -999 -999
2007-06-22 07:18 51°21.292 2°34.518 -999 -999 -999 -999 -999
2007-06-22 07:19 51°21.513 2°34.408 -999 -999 -999 -999 -999
2007-06-22 07:20 51°21.733 2°34.296 -999 -999 -999 -999 -999
2007-06-22 07:21 51°21.953 2°34.18 -999 -999 -999 -999 -999
2007-06-22 07:22 51°22.17 2°34.06 -999 -999 -999 -999 -999
2007-06-22 07:23 51°22.382 2°33.932 -999 -999 -999 -999 -999
2007-06-22 07:24 51°22.545 2°33.693 -999 -999 -999 -999 -999
2007-06-22 07:25 51°22.683 2°33.42 -999 -999 -999 -999 -999
2007-06-22 07:26 51°22.821 2°33.146 -999 -999 -999 -999 -999
2007-06-22 07:27 51°22.957 2°32.869 -999 -999 -999 -999 -999
2007-06-22 07:28 51°23.091 2°32.593 -999 -999 -999 -999 -999
2007-06-22 07:29 51°23.225 2°32.321 -999 -999 -999 -999 -999
2007-06-22 07:30 51°23.359 2°32.049 -999 -999 -999 -999 -999
2007-06-22 07:31 51°23.494 2°31.779 -999 -999 -999 -999 -999
2007-06-22 07:32 51°23.63 2°31.509 -999 -999 -999 -999 -999
2007-06-22 07:33 51°23.772 2°31.244 -999 -999 -999 -999 -999
2007-06-22 07:34 51°23.914 2°30.981 -999 -999 -999 -999 -999
2007-06-22 07:35 51°24.056 2°30.704 -999 -999 -999 -999 -999
2007-06-22 07:36 51°24.195 2°30.43 -999 -999 -999 -999 -999
2007-06-22 07:37 51°24.336 2°30.157 -999 -999 -999 -999 -999
2007-06-22 07:38 51°24.476 2°29.882 -999 -999 -999 -999 -999
2007-06-22 07:39 51°24.618 2°29.612 -999 -999 -999 -999 -999
2007-06-22 07:40 51°24.756 2°29.344 -999 -999 -999 -999 -999
2007-06-22 07:41 51°24.873 2°29.115 -999 -999 -999 -999 -999
2007-06-22 07:42 51°24.904 2°28.945 -999 -999 -999 -999 -999
2007-06-22 07:43 51°24.868 2°28.874 -999 -999 -999 -999 -999
2007-06-22 07:44 51°24.819 2°28.798 -999 -999 -999 -999 -999
2007-06-22 07:45 51°24.798 2°28.743 -999 -999 -999 -999 -999
2007-06-22 07:46 51°24.785 2°28.714 -999 -999 -999 -999 -999
2007-06-22 07:47 51°24.777 2°28.706 -999 -999 -999 -999 -999
2007-06-22 07:48 51°24.78 2°28.712 -999 -999 -999 -999 -999
2007-06-22 07:49 51°24.787 2°28.726 -999 -999 -999 -999 -999
2007-06-22 07:50 51°24.801 2°28.742 -999 -999 -999 -999 -999
2007-06-22 07:51 51°24.821 2°28.757 -999 -999 -999 -999 -999
2007-06-22 07:52 51°24.834 2°28.78 -999 -999 -999 -999 -999
2007-06-22 07:53 51°24.824 2°28.808 -999 -999 -999 -999 -999
2007-06-22 07:54 51°24.802 2°28.799 -999 -999 -999 -999 -999
2007-06-22 07:55 51°24.779 2°28.761 -999 -999 -999 -999 -999
2007-06-22 07:56 51°24.759 2°28.725 -999 -999 -999 -999 -999
2007-06-22 07:57 51°24.752 2°28.695 -999 -999 -999 -999 -999
2007-06-22 07:58 51°24.767 2°28.695 -999 -999 -999 -999 -999
2007-06-22 07:59 51°24.784 2°28.722 -999 -999 -999 -999 -999
2007-06-22 08:00 51°24.798 2°28.749 -999 -999 -999 -999 -999
2007-06-22 08:01 51°24.814 2°28.77 -999 -999 -999 -999 -999
2007-06-22 08:02 51°24.837 2°28.776 -999 -999 -999 -999 -999
2007-06-22 08:03 51°24.851 2°28.738 -999 -999 -999 -999 -999
2007-06-22 08:04 51°24.833 2°28.698 -999 -999 -999 -999 -999
2007-06-22 08:05 51°24.796 2°28.673 -999 -999 -999 -999 -999
2007-06-22 08:06 51°24.775 2°28.674 -999 -999 -999 -999 -999
2007-06-22 08:07 51°24.771 2°28.695 -999 -999 -999 -999 -999
2007-06-22 08:08 51°24.778 2°28.721 -999 -999 -999 -999 -999
2007-06-22 08:09 51°24.79 2°28.745 -999 -999 -999 -999 -999
2007-06-22 08:10 51°24.806 2°28.767 -999 -999 -999 -999 -999
2007-06-22 08:11 51°24.819 2°28.795 -999 -999 -999 -999 -999
2007-06-22 08:12 51°24.797 2°28.829 -999 -999 -999 -999 -999
2007-06-22 08:13 51°24.768 2°28.8 -999 -999 -999 -999 -999
2007-06-22 08:14 51°24.744 2°28.745 -999 -999 -999 -999 -999
2007-06-22 08:15 51°24.739 2°28.703 -999 -999 -999 -999 -999
2007-06-22 08:16 51°24.752 2°28.696 -999 -999 -999 -999 -999
2007-06-22 08:17 51°24.77 2°28.709 -999 -999 -999 -999 -999
2007-06-22 08:18 51°24.786 2°28.727 -999 -999 -999 -999 -999
2007-06-22 08:19 51°24.803 2°28.74 -999 -999 -999 -999 -999
2007-06-22 08:20 51°24.822 2°28.752 -999 -999 -999 -999 -999
2007-06-22 08:21 51°24.841 2°28.731 -999 -999 -999 -999 -999
2007-06-22 08:22 51°24.834 2°28.687 -999 -999 -999 -999 -999
2007-06-22 08:23 51°24.793 2°28.671 -999 -999 -999 -999 -999
2007-06-22 08:24 51°24.758 2°28.662 -999 -999 -999 -999 -999
2007-06-22 08:25 51°24.756 2°28.673 -999 -999 -999 -999 -999
2007-06-22 08:26 51°24.765 2°28.689 -999 -999 -999 -999 -999
2007-06-22 08:27 51°24.779 2°28.706 -999 -999 -999 -999 -999
2007-06-22 08:28 51°24.796 2°28.721 -999 -999 -999 -999 -999
2007-06-22 08:29 51°24.814 2°28.735 -999 -999 -999 -999 -999
2007-06-22 08:30 51°24.834 2°28.794 -999 -999 -999 -999 -999
2007-06-22 08:31 51°24.861 2°29.062 -999 -999 -999 -999 -999
2007-06-22 08:32 51°24.892 2°29.418 -999 -999 -999 -999 -999
2007-06-22 08:33 51°24.905 2°29.777 -999 -999 -999 -999 -999
2007-06-22 08:34 51°24.966 2°30.13 -999 -999 -999 -999 -999
2007-06-22 08:35 51°25.038 2°30.481 -999 -999 -999 -999 -999
2007-06-22 08:36 51°25.1 2°30.836 -999 -999 -999 -999 -999
2007-06-22 08:37 51°25.159 2°31.193 -999 -999 -999 -999 -999
2007-06-22 08:38 51°25.213 2°31.536 -999 -999 -999 -999 -999
2007-06-22 08:39 51°25.245 2°31.824 -999 -999 -999 -999 -999
2007-06-22 08:40 51°25.158 2°31.951 -999 -999 -999 -999 -999
2007-06-22 08:41 51°25.048 2°31.898 -999 -999 -999 -999 -999
2007-06-22 08:42 51°24.984 2°31.829 -999 -999 -999 -999 -999
2007-06-22 08:43 51°24.936 2°31.769 -999 -999 -999 -999 -999
2007-06-22 08:44 51°24.892 2°31.72 -999 -999 -999 -999 -999
2007-06-22 08:45 51°24.865 2°31.678 -999 -999 -999 -999 -999
2007-06-22 08:46 51°24.849 2°31.675 -999 -999 -999 -999 -999
2007-06-22 08:47 51°24.842 2°31.688 -999 -999 -999 -999 -999
2007-06-22 08:48 51°24.843 2°31.705 -999 -999 -999 -999 -999
2007-06-22 08:49 51°24.852 2°31.726 -999 -999 -999 -999 -999
2007-06-22 08:50 51°24.864 2°31.748 -999 -999 -999 -999 -999
2007-06-22 08:51 51°24.876 2°31.778 -999 -999 -999 -999 -999
2007-06-22 08:52 51°24.879 2°31.823 -999 -999 -999 -999 -999
2007-06-22 08:53 51°24.886 2°31.854 -999 -999 -999 -999 -999
2007-06-22 08:54 51°24.894 2°31.874 -999 -999 -999 -999 -999
2007-06-22 08:55 51°24.906 2°31.888 -999 -999 -999 -999 -999
2007-06-22 08:56 51°24.921 2°31.901 -999 -999 -999 -999 -999
2007-06-22 08:57 51°24.938 2°31.912 -999 -999 -999 -999 -999
2007-06-22 08:58 51°24.956 2°31.922 -999 -999 -999 -999 -999
2007-06-22 08:59 51°24.974 2°31.93 -999 -999 -999 -999 -999
2007-06-22 09:00 51°24.993 2°31.937 -999 -999 -999 -999 -999
2007-06-22 09:01 51°25.012 2°31.943 -999 -999 -999 -999 -999
2007-06-22 09:02 51°25.029 2°31.95 -999 -999 -999 -999 -999
2007-06-22 09:03 51°25.047 2°31.957 -999 -999 -999 -999 -999
2007-06-22 09:04 51°25.065 2°31.967 -999 -999 -999 -999 -999
2007-06-22 09:05 51°25.083 2°31.977 -999 -999 -999 -999 -999
2007-06-22 09:06 51°25.1 2°31.986 -999 -999 -999 -999 -999
2007-06-22 09:07 51°25.116 2°31.996 -999 -999 -999 -999 -999
2007-06-22 09:08 51°25.132 2°32.004 -999 -999 -999 -999 -999
2007-06-22 09:09 51°25.136 2°32.038 -999 -999 -999 -999 -999
2007-06-22 09:10 51°25.097 2°32.057 -999 -999 -999 -999 -999
2007-06-22 09:11 51°25.033 2°32.018 -999 -999 -999 -999 -999
2007-06-22 09:12 51°24.98 2°31.939 -999 -999 -999 -999 -999
2007-06-22 09:13 51°24.973 2°31.898 -999 -999 -999 -999 -999
2007-06-22 09:14 51°24.982 2°31.881 -999 -999 -999 -999 -999
2007-06-22 09:15 51°24.995 2°31.866 -999 -999 -999 -999 -999
2007-06-22 09:16 51°25.008 2°31.856 -999 -999 -999 -999 -999
2007-06-22 09:17 51°25.023 2°31.847 -999 -999 -999 -999 -999
2007-06-22 09:18 51°25.038 2°31.839 -999 -999 -999 -999 -999
2007-06-22 09:19 51°25.054 2°31.832 -999 -999 -999 -999 -999
2007-06-22 09:20 51°25.071 2°31.825 -999 -999 -999 -999 -999
2007-06-22 09:21 51°25.087 2°31.817 -999 -999 -999 -999 -999
2007-06-22 09:22 51°25.103 2°31.808 -999 -999 -999 -999 -999
2007-06-22 09:23 51°25.118 2°31.799 -999 -999 -999 -999 -999
2007-06-22 09:24 51°25.134 2°31.788 -999 -999 -999 -999 -999
2007-06-22 09:25 51°25.149 2°31.777 -999 -999 -999 -999 -999
2007-06-22 09:26 51°25.164 2°31.766 -999 -999 -999 -999 -999
2007-06-22 09:27 51°25.175 2°31.739 -999 -999 -999 -999 -999
2007-06-22 09:28 51°25.135 2°31.699 -999 -999 -999 -999 -999
2007-06-22 09:29 51°25.075 2°31.731 -999 -999 -999 -999 -999
2007-06-22 09:30 51°25.014 2°31.738 -999 -999 -999 -999 -999
2007-06-22 09:31 51°25.002 2°31.712 -999 -999 -999 -999 -999
2007-06-22 09:32 51°25.005 2°31.683 -999 -999 -999 -999 -999
2007-06-22 09:33 51°25.014 2°31.659 -999 -999 -999 -999 -999
2007-06-22 09:34 51°25.024 2°31.641 -999 -999 -999 -999 -999
2007-06-22 09:35 51°25.037 2°31.626 -999 -999 -999 -999 -999
2007-06-22 09:36 51°25.059 2°31.567 -999 -999 -999 -999 -999
2007-06-22 09:37 51°25.124 2°31.538 -999 -999 -999 -999 -999
2007-06-22 09:38 51°25.163 2°31.56 -999 -999 -999 -999 -999
2007-06-22 09:39 51°25.184 2°31.579 -999 -999 -999 -999 -999
2007-06-22 09:40 51°25.2 2°31.592 -999 -999 -999 -999 -999
2007-06-22 09:41 51°25.214 2°31.602 -999 -999 -999 -999 -999
2007-06-22 09:42 51°25.226 2°31.607 -999 -999 -999 -999 -999
2007-06-22 09:43 51°25.238 2°31.608 -999 -999 -999 -999 -999
2007-06-22 09:44 51°25.251 2°31.608 -999 -999 -999 -999 -999
2007-06-22 09:45 51°25.263 2°31.605 -999 -999 -999 -999 -999
2007-06-22 09:46 51°25.275 2°31.601 -999 -999 -999 -999 -999
2007-06-22 09:47 51°25.289 2°31.594 -999 -999 -999 -999 -999
2007-06-22 09:48 51°25.301 2°31.585 -999 -999 -999 -999 -999
2007-06-22 09:49 51°25.314 2°31.575 -999 -999 -999 -999 -999
2007-06-22 09:50 51°25.328 2°31.564 -999 -999 -999 -999 -999
2007-06-22 09:51 51°25.341 2°31.552 -999 -999 -999 -999 -999
2007-06-22 09:52 51°25.348 2°31.581 -999 -999 -999 -999 -999
2007-06-22 09:53 51°25.307 2°31.616 -999 -999 -999 -999 -999
2007-06-22 09:54 51°25.231 2°31.618 -999 -999 -999 -999 -999
2007-06-22 09:55 51°25.158 2°31.627 -999 -999 -999 -999 -999
2007-06-22 09:56 51°25.134 2°31.651 -999 -999 -999 -999 -999
2007-06-22 09:57 51°25.128 2°31.675 -999 -999 -999 -999 -999
2007-06-22 09:58 51°25.126 2°31.692 -999 -999 -999 -999 -999
2007-06-22 09:59 51°25.126 2°31.702 -999 -999 -999 -999 -999
2007-06-22 10:00 51°25.129 2°31.709 -999 -999 -999 -999 -999
2007-06-22 10:01 51°25.133 2°31.711 -999 -999 -999 -999 -999
2007-06-22 10:02 51°25.14 2°31.71 -999 -999 -999 -999 -999
2007-06-22 10:03 51°25.148 2°31.708 -999 -999 -999 -999 -999
2007-06-22 10:04 51°25.157 2°31.704 -999 -999 -999 -999 -999
2007-06-22 10:05 51°25.158 2°31.72 -999 -999 -999 -999 -999
2007-06-22 10:06 51°25.123 2°31.741 -999 -999 -999 -999 -999
2007-06-22 10:07 51°25.077 2°31.612 -999 -999 -999 -999 -999
2007-06-22 10:08 51°25.071 2°31.322 -999 -999 -999 -999 -999
2007-06-22 10:09 51°25.062 2°30.954 -999 -999 -999 -999 -999
2007-06-22 10:10 51°25.055 2°30.586 -999 -999 -999 -999 -999
2007-06-22 10:11 51°25.046 2°30.22 -999 -999 -999 -999 -999
2007-06-22 10:12 51°25.037 2°29.853 -999 -999 -999 -999 -999
2007-06-22 10:13 51°25.028 2°29.484 -999 -999 -999 -999 -999
2007-06-22 10:14 51°24.97 2°29.133 -999 -999 -999 -999 -999
2007-06-22 10:15 51°24.886 2°28.922 -999 -999 -999 -999 -999
2007-06-22 10:16 51°24.844 2°28.771 -999 -999 -999 -999 -999
2007-06-22 10:17 51°24.816 2°28.678 -999 -999 -999 -999 -999
2007-06-22 10:18 51°24.789 2°28.626 -999 -999 -999 -999 -999
2007-06-22 10:19 51°24.765 2°28.6 -999 -999 -999 -999 -999
2007-06-22 10:20 51°24.753 2°28.589 -999 -999 -999 -999 -999
2007-06-22 10:21 51°24.747 2°28.587 -999 -999 -999 -999 -999
2007-06-22 10:22 51°24.747 2°28.593 -999 -999 -999 -999 -999
2007-06-22 10:23 51°24.757 2°28.617 -999 -999 -999 -999 -999
2007-06-22 10:24 51°24.769 2°28.656 -999 -999 -999 -999 -999
2007-06-22 10:25 51°24.788 2°28.7 -999 -999 -999 -999 -999
2007-06-22 10:26 51°24.798 2°28.74 -999 -999 -999 -999 -999
2007-06-22 10:27 51°24.797 2°28.761 -999 -999 -999 -999 -999
2007-06-22 10:28 51°24.801 2°28.756 -999 -999 -999 -999 -999
2007-06-22 10:29 51°24.806 2°28.746 -999 -999 -999 -999 -999
2007-06-22 10:30 51°24.808 2°28.749 -999 -999 -999 -999 -999
2007-06-22 10:31 51°24.789 2°28.776 -999 -999 -999 -999 -999
2007-06-22 10:32 51°24.766 2°28.781 -999 -999 -999 -999 -999
2007-06-22 10:33 51°24.759 2°28.773 -999 -999 -999 -999 -999
2007-06-22 10:34 51°24.757 2°28.759 -999 -999 -999 -999 -999
2007-06-22 10:35 51°24.761 2°28.745 -999 -999 -999 -999 -999
2007-06-22 10:36 51°24.768 2°28.734 -999 -999 -999 -999 -999
2007-06-22 10:37 51°24.774 2°28.721 -999 -999 -999 -999 -999
2007-06-22 10:38 51°24.781 2°28.708 -999 -999 -999 -999 -999
2007-06-22 10:39 51°24.786 2°28.697 -999 -999 -999 -999 -999
2007-06-22 10:40 51°24.792 2°28.686 -999 -999 -999 -999 -999
2007-06-22 10:41 51°24.795 2°28.675 -999 -999 -999 -999 -999
2007-06-22 10:42 51°24.798 2°28.649 -999 -999 -999 -999 -999
2007-06-22 10:43 51°24.786 2°28.592 -999 -999 -999 -999 -999
2007-06-22 10:44 51°24.747 2°28.557 -999 -999 -999 -999 -999
2007-06-22 10:45 51°24.715 2°28.591 -999 -999 -999 -999 -999
2007-06-22 10:46 51°24.717 2°28.672 -999 -999 -999 -999 -999
2007-06-22 10:47 51°24.725 2°28.755 -999 -999 -999 -999 -999
2007-06-22 10:48 51°24.73 2°28.786 -999 -999 -999 -999 -999
2007-06-22 10:49 51°24.732 2°28.782 -999 -999 -999 -999 -999
2007-06-22 10:50 51°24.734 2°28.777 -999 -999 -999 -999 -999
2007-06-22 10:51 51°24.736 2°28.776 -999 -999 -999 -999 -999
2007-06-22 10:52 51°24.739 2°28.777 -999 -999 -999 -999 -999
2007-06-22 10:53 51°24.742 2°28.774 -999 -999 -999 -999 -999
2007-06-22 10:54 51°24.745 2°28.768 -999 -999 -999 -999 -999
2007-06-22 10:55 51°24.747 2°28.762 -999 -999 -999 -999 -999
2007-06-22 10:56 51°24.75 2°28.761 -999 -999 -999 -999 -999
2007-06-22 10:57 51°24.753 2°28.757 -999 -999 -999 -999 -999
2007-06-22 10:58 51°24.754 2°28.752 -999 -999 -999 -999 -999
2007-06-22 10:59 51°24.758 2°28.747 -999 -999 -999 -999 -999
2007-06-22 11:00 51°24.76 2°28.741 -999 -999 -999 -999 -999
2007-06-22 11:01 51°24.763 2°28.737 -999 -999 -999 -999 -999
2007-06-22 11:02 51°24.766 2°28.731 -999 -999 -999 -999 -999
2007-06-22 11:03 51°24.769 2°28.726 -999 -999 -999 -999 -999
2007-06-22 11:04 51°24.773 2°28.72 -999 -999 -999 -999 -999
2007-06-22 11:05 51°24.777 2°28.714 -999 -999 -999 -999 -999
2007-06-22 11:06 51°24.779 2°28.704 -999 -999 -999 -999 -999
2007-06-22 11:07 51°24.779 2°28.691 -999 -999 -999 -999 -999
2007-06-22 11:08 51°24.778 2°28.674 -999 -999 -999 -999 -999
2007-06-22 11:09 51°24.778 2°28.659 -999 -999 -999 -999 -999
2007-06-22 11:10 51°24.775 2°28.68 -999 -999 -999 -999 -999
2007-06-22 11:11 51°24.775 2°28.709 -999 -999 -999 -999 -999
2007-06-22 11:12 51°24.775 2°28.72 -999 -999 -999 -999 -999
2007-06-22 11:13 51°24.772 2°28.716 -999 -999 -999 -999 -999
2007-06-22 11:14 51°24.768 2°28.709 -999 -999 -999 -999 -999
2007-06-22 11:15 51°24.764 2°28.698 -999 -999 -999 -999 -999
2007-06-22 11:16 51°24.759 2°28.686 -999 -999 -999 -999 -999
2007-06-22 11:17 51°24.755 2°28.676 -999 -999 -999 -999 -999
2007-06-22 11:18 51°24.751 2°28.705 -999 -999 -999 -999 -999
2007-06-22 11:19 51°24.767 2°28.736 -999 -999 -999 -999 -999
2007-06-22 11:20 51°24.79 2°28.75 -999 -999 -999 -999 -999
2007-06-22 11:21 51°24.797 2°28.74 -999 -999 -999 -999 -999
2007-06-22 11:22 51°24.791 2°28.713 -999 -999 -999 -999 -999
2007-06-22 11:23 51°24.796 2°28.719 -999 -999 -999 -999 -999
2007-06-22 11:24 51°24.792 2°28.736 -999 -999 -999 -999 -999
2007-06-22 11:25 51°24.784 2°28.74 -999 -999 -999 -999 -999
2007-06-22 11:26 51°24.781 2°28.727 -999 -999 -999 -999 -999
2007-06-22 11:27 51°24.778 2°28.716 -999 -999 -999 -999 -999
2007-06-22 11:28 51°24.775 2°28.705 -999 -999 -999 -999 -999
2007-06-22 11:29 51°24.77 2°28.696 -999 -999 -999 -999 -999
2007-06-22 11:30 51°24.765 2°28.686 -999 -999 -999 -999 -999
2007-06-22 11:31 51°24.748 2°28.692 -999 -999 -999 -999 -999
2007-06-22 11:32 51°24.736 2°28.737 -999 -999 -999 -999 -999
2007-06-22 11:33 51°24.766 2°28.758 -999 -999 -999 -999 -999
2007-06-22 11:34 51°24.794 2°28.741 -999 -999 -999 -999 -999
2007-06-22 11:35 51°24.786 2°28.728 -999 -999 -999 -999 -999
2007-06-22 11:36 51°24.772 2°28.719 -999 -999 -999 -999 -999
2007-06-22 11:37 51°24.763 2°28.707 -999 -999 -999 -999 -999
2007-06-22 11:38 51°24.756 2°28.695 -999 -999 -999 -999 -999
2007-06-22 11:39 51°24.754 2°28.683 -999 -999 -999 -999 -999
2007-06-22 11:40 51°24.779 2°28.703 -999 -999 -999 -999 -999
2007-06-22 11:41 51°24.749 2°28.844 -999 -999 -999 -999 -999
2007-06-22 11:42 51°24.645 2°29.04 -999 -999 -999 -999 -999
2007-06-22 11:43 51°24.526 2°29.309 -999 -999 -999 -999 -999
2007-06-22 11:44 51°24.409 2°29.597 -999 -999 -999 -999 -999
2007-06-22 11:45 51°24.291 2°29.886 -999 -999 -999 -999 -999
2007-06-22 11:46 51°24.173 2°30.174 -999 -999 -999 -999 -999
2007-06-22 11:47 51°24.054 2°30.463 -999 -999 -999 -999 -999
2007-06-22 11:48 51°23.934 2°30.752 -999 -999 -999 -999 -999
2007-06-22 11:49 51°23.816 2°31.041 -999 -999 -999 -999 -999
2007-06-22 11:50 51°23.701 2°31.331 -999 -999 -999 -999 -999
2007-06-22 11:51 51°23.588 2°31.617 -999 -999 -999 -999 -999
2007-06-22 11:52 51°23.476 2°31.899 -999 -999 -999 -999 -999
2007-06-22 11:53 51°23.362 2°32.179 -999 -999 -999 -999 -999
2007-06-22 11:54 51°23.248 2°32.46 -999 -999 -999 -999 -999
2007-06-22 11:55 51°23.134 2°32.744 -999 -999 -999 -999 -999
2007-06-22 11:56 51°23.018 2°33.026 -999 -999 -999 -999 -999
2007-06-22 11:57 51°22.901 2°33.307 -999 -999 -999 -999 -999
2007-06-22 11:58 51°22.787 2°33.592 -999 -999 -999 -999 -999
2007-06-22 11:59 51°22.669 2°33.874 -999 -999 -999 -999 -999
2007-06-22 12:00 51°22.552 2°34.159 -999 -999 -999 -999 -999
2007-06-22 12:01 51°22.437 2°34.441 -999 -999 -999 -999 -999
2007-06-22 12:02 51°22.321 2°34.721 -999 -999 -999 -999 -999
2007-06-22 12:03 51°22.21 2°35.009 -999 -999 -999 -999 -999
2007-06-22 12:04 51°22.097 2°35.292 -999 -999 -999 -999 -999
2007-06-22 12:05 51°21.985 2°35.575 -999 -999 -999 -999 -999
2007-06-22 12:06 51°21.87 2°35.855 -999 -999 -999 -999 -999
2007-06-22 12:07 51°21.757 2°36.137 -999 -999 -999 -999 -999
2007-06-22 12:08 51°21.643 2°36.42 -999 -999 -999 -999 -999
2007-06-22 12:09 51°21.529 2°36.705 -999 -999 -999 -999 -999
2007-06-22 12:10 51°21.414 2°36.989 -999 -999 -999 -999 -999
2007-06-22 12:11 51°21.3 2°37.27 -999 -999 -999 -999 -999
2007-06-22 12:12 51°21.185 2°37.55 -999 -999 -999 -999 -999
2007-06-22 12:13 51°21.07 2°37.836 -999 -999 -999 -999 -999
2007-06-22 12:14 51°20.955 2°38.123 -999 -999 -999 -999 -999
2007-06-22 12:15 51°20.838 2°38.406 -999 -999 -999 -999 -999
2007-06-22 12:16 51°20.721 2°38.692 -999 -999 -999 -999 -999
2007-06-22 12:17 51°20.608 2°38.979 -999 -999 -999 -999 -999
2007-06-22 12:18 51°20.491 2°39.265 -999 -999 -999 -999 -999
2007-06-22 12:19 51°20.375 2°39.552 -999 -999 -999 -999 -999
2007-06-22 12:20 51°20.266 2°39.847 -999 -999 -999 -999 -999
2007-06-22 12:21 51°20.16 2°40.143 -999 -999 -999 -999 -999
2007-06-22 12:22 51°20.056 2°40.438 -999 -999 -999 -999 -999
2007-06-22 12:23 51°19.958 2°40.737 -999 -999 -999 -999 -999
2007-06-22 12:24 51°19.86 2°41.028 -999 -999 -999 -999 -999
2007-06-22 12:25 51°19.762 2°41.317 -999 -999 -999 -999 -999
2007-06-22 12:26 51°19.662 2°41.606 -999 -999 -999 -999 -999
2007-06-22 12:27 51°19.557 2°41.896 -999 -999 -999 -999 -999
2007-06-22 12:28 51°19.454 2°42.19 -999 -999 -999 -999 -999
2007-06-22 12:29 51°19.349 2°42.489 -999 -999 -999 -999 -999
2007-06-22 12:30 51°19.248 2°42.789 -999 -999 -999 -999 -999
2007-06-22 12:31 51°19.147 2°43.088 -999 -999 -999 -999 -999
2007-06-22 12:32 51°19.047 2°43.385 -999 -999 -999 -999 -999
2007-06-22 12:33 51°18.946 2°43.681 -999 -999 -999 -999 -999
2007-06-22 12:34 51°18.846 2°43.979 -999 -999 -999 -999 -999
2007-06-22 12:35 51°18.744 2°44.277 -999 -999 -999 -999 -999
2007-06-22 12:36 51°18.647 2°44.569 -999 -999 -999 -999 -999
2007-06-22 12:37 51°18.545 2°44.864 -999 -999 -999 -999 -999
2007-06-22 12:38 51°18.438 2°45.156 -999 -999 -999 -999 -999
2007-06-22 12:39 51°18.332 2°45.451 -999 -999 -999 -999 -999
2007-06-22 12:40 51°18.224 2°45.744 -999 -999 -999 -999 -999
2007-06-22 12:41 51°18.12 2°46.039 -999 -999 -999 -999 -999
2007-06-22 12:42 51°18.029 2°46.343 -999 -999 -999 -999 -999
2007-06-22 12:43 51°17.938 2°46.647 -999 -999 -999 -999 -999
2007-06-22 12:44 51°17.846 2°46.954 -999 -999 -999 -999 -999
2007-06-22 12:45 51°17.756 2°47.257 -999 -999 -999 -999 -999
2007-06-22 12:46 51°17.668 2°47.566 -999 -999 -999 -999 -999
2007-06-22 12:47 51°17.576 2°47.871 -999 -999 -999 -999 -999
2007-06-22 12:48 51°17.482 2°48.173 -999 -999 -999 -999 -999
2007-06-22 12:49 51°17.388 2°48.476 -999 -999 -999 -999 -999
2007-06-22 12:50 51°17.289 2°48.784 -999 -999 -999 -999 -999
2007-06-22 12:51 51°17.169 2°49.074 -999 -999 -999 -999 -999
2007-06-22 12:52 51°16.996 2°49.307 -999 -999 -999 -999 -999
2007-06-22 12:53 51°16.816 2°49.53 -999 -999 -999 -999 -999
2007-06-22 12:54 51°16.632 2°49.76 -999 -999 -999 -999 -999
2007-06-22 12:55 51°16.456 2°49.988 -999 -999 -999 -999 -999
2007-06-22 12:56 51°16.284 2°50.219 -999 -999 -999 -999 -999
2007-06-22 12:57 51°16.126 2°50.469 -999 -999 -999 -999 -999
2007-06-22 12:58 51°15.968 2°50.729 -999 -999 -999 -999 -999
2007-06-22 12:59 51°15.824 2°51.011 -999 -999 -999 -999 -999
2007-06-22 13:00 51°15.691 2°51.294 -999 -999 -999 -999 -999
2007-06-22 13:01 51°15.568 2°51.58 -999 -999 -999 -999 -999
2007-06-22 13:02 51°15.444 2°51.863 -999 -999 -999 -999 -999
2007-06-22 13:03 51°15.32 2°52.145 -999 -999 -999 -999 -999
2007-06-22 13:04 51°15.197 2°52.429 -999 -999 -999 -999 -999
2007-06-22 13:05 51°15.075 2°52.716 -999 -999 -999 -999 -999
2007-06-22 13:06 51°14.955 2°53.01 -999 -999 -999 -999 -999
2007-06-22 13:07 51°14.848 2°53.288 -999 -999 -999 -999 -999
2007-06-22 13:08 51°14.782 2°53.472 -999 -999 -999 -999 -999
2007-06-22 13:09 51°14.737 2°53.596 -999 -999 -999 -999 -999
2007-06-22 13:10 51°14.717 2°53.673 -999 -999 -999 -999 -999
2007-06-22 13:11 51°14.712 2°53.723 -999 -999 -999 -999 -999
2007-06-22 13:12 51°14.711 2°53.756 -999 -999 -999 -999 -999
2007-06-22 13:13 51°14.713 2°53.778 -999 -999 -999 -999 -999
2007-06-22 13:14 51°14.711 2°53.788 -999 -999 -999 -999 -999
2007-06-22 13:15 51°14.705 2°53.785 -999 -999 -999 -999 -999
2007-06-22 13:16 51°14.699 2°53.781 -999 -999 -999 -999 -999
2007-06-22 13:17 51°14.7 2°53.796 -999 -999 -999 -999 -999
2007-06-22 13:18 51°14.66 2°53.946 -999 -999 -999 -999 -999
2007-06-22 13:19 51°14.571 2°54.238 -999 -999 -999 -999 -999
2007-06-22 13:20 51°14.49 2°54.55 -999 -999 -999 -999 -999
2007-06-22 13:21 51°14.407 2°54.866 -999 -999 -999 -999 -999
2007-06-22 13:22 51°14.307 2°55.168 -999 -999 -999 -999 -999
2007-06-22 13:23 51°14.176 2°55.36 -999 -999 -999 -999 -999
2007-06-22 13:24 51°14.062 2°55.457 -999 -999 -999 -999 -999
2007-06-22 13:25 51°13.953 2°55.54 -999 -999 -999 -999 -999
2007-06-22 13:26 51°13.846 2°55.622 -999 -999 -999 -999 -999
2007-06-22 13:27 51°13.767 2°55.704 -999 -999 -999 -999 -999
2007-06-22 13:28 51°13.698 2°55.82 -999 -999 -999 -999 -999
2007-06-22 13:29 51°13.651 2°55.923 -999 -999 -999 -999 -999
2007-06-22 13:30 51°13.617 2°56.009 -999 -999 -999 -999 -999
2007-06-22 13:31 51°13.601 2°56.068 -999 -999 -999 -999 -999
2007-06-22 13:32 51°13.598 2°56.091 -999 -999 -999 -999 -999
2007-06-22 13:33 51°13.597 2°56.092 -999 -999 -999 -999 -999
2007-06-22 13:34 51°13.599 2°56.089 -999 -999 -999 -999 -999
2007-06-22 13:35 51°13.598 2°56.093 -999 -999 -999 -999 -999